Location: Home
(42.5358°N, 72.7383°W)
Time: 04:27:27
(UTC-04:00)

Vanguard 1 - Pass Details

Date: 31 May 2022
Orbit: 649 x 3832 km, 34.2° (Epoch: 24 June)

Event Time Altitude Azimuth Distance (km) Brightness Sun altitude
Exits shadow 02:32:22 10° 251° (WSW) 4,466 13.0 -21.2°
Maximum altitude 02:45:42 65° 174° (S) 3,180 12.3 -20.1°
Drops below altitude 10° 03:07:41 10° 100° (E) 6,907 14.7 -18.0°
Sets 03:13:18 0° 98° (E) 7,972 15.1 -17.4°
